星链-3115 (STARLINK-3115 )

导读

STARLINK-3115是美国SpaceX公司星链计划中的一颗卫星,于2021年11月13日发射升空,属于星链星座组网进程中的组成部分。星链项目旨在近地轨道构建巨型卫星星座,为全球偏远、基础设施匮乏地区提供低延迟高速宽带互联网接入,目前已拓展至航空、海事、应急通信等多个领域。STARLINK-3115的成功发射,进一步推动了星链星座全球覆盖的建设进程,助力SpaceX逐步实现全球卫星互联网服务的部署目标。

基本信息
目录编号:
49447
目录名称:
STARLINK-3115
国际标识:
2021-104AR
轨道中心:
EARTH
卫星名称:
星链-3115
卫星全名:
星链-3115 (STARLINK-3115 )
卫星状态:
在轨 (已飞行1756 天)
发射日期:
2021-11-13 UTC
国别 :
美国 (US)
星等 :
--
轨道信息
数据来源 国际轨道数据 AOE轨道数据
星历时间 2026-09-03T11:02:01+0800
1天前
查看轨道信息
2026-09-03T23:00:00+0800
14小时前
查看轨道信息
半长轴 6848.876km 6848.857km
偏心率 0.0001345 0.0001189
轨道倾角 53.160° 53.158°
近地点辐角 98.956° 89.711°
升交点赤经 132.722° 130.400°
平近点角 261.159° 141.261°
近地点 469.817km 469.905km
远地点 471.661km 471.535km
周期 94.013分钟 94.013分钟
每日圈数 15.317004 15.317068
详细信息
固有亮度:
5
最大亮度:
2.5
卫星平台:
Starlink v1.5
覆盖范围:
全球
运营商:
太空探索技术公司
运营商所在国:
美国
制造商(研发单位):
太空探索技术公司
制造商所在国:
美国
使用方式:
暂无
卫星简介
星链(Starlink)计划是由太空探索技术公司(SpaceX)提出的一个巨型低轨卫星互联网星座项目,计划在2019年至2024年间在太空搭建由约1.2万颗卫星组成的“星链”网络,其中1584颗将部署在地球上空550千米处的近地轨道,并从2020年开始工作。该卫星仍在工作。
2D轨道图
3D轨道图
轨道高度分析图
轨道倾角分析图
轨道综合分析图
查看轨道综合分析图
交会数据列表
事件ID 空间交会对象 最接近时刻(TCA) 交会距离 交会风险概率(CRP) 交会风险指数(CRI) 操作
CDM_260904-204604-944705-846922
2026-09-04T
20:46:18+0000
0.797 km
远距离
5.608658E-5 中风险 0.7
CDM_260904-063804-944706-959921
2026-09-04T
06:38:46+0000
1.908 km
极远距离
2.520654E-6 低风险 0.43
CDM_260905-102904-944706-971321
2026-09-05T
10:29:17+0000
2.850 km
极远距离
1.419497E-6 低风险 0.38
CDM_260905-210901-312104-944721
SL-3 R/B (13121)
2026-09-05T
21:09:37+0000
2.371 km
极远距离
1.359162E-6 低风险 0.38
CDM_260827-232904-944706-566121
2026-08-27T
23:29:25+0000
2.852 km
极远距离
1.327489E-6 低风险 0.37
CDM_260904-001104-944706-753621
2026-09-04T
00:11:54+0000
2.831 km
极远距离
8.451287E-7 极低风险 0.34